• In Belgien
  • Länderverzeichnis
  • Für 7 Tage
  • Wassertemperatur
  • Satellitenkarten
  • Wetterkarte
  • Widgets
  • user-avatar
    Anmelden

    Stündliche Wetter Siemnice

    Heute, 15 Juli, Sonntag

    Zeit Temperatur Niederschläge Wind Luftdruck Luftfeuchtigkeit
    00:00 +17°C° 0,1 mm 4 m/S 738 mmHg 95%
    01:00 +15°C° 0,1 mm 4 m/S 738 mmHg 96%
    02:00 +16°C° 0 mm 2 m/S 738 mmHg 98%
    03:00 +16°C° 0,3 mm 3 m/S 738 mmHg 98%
    04:00 +16°C° 0,3 mm 3 m/S 738 mmHg 97%
    05:00 +15°C° 0,3 mm 4 m/S 738 mmHg 97%
    06:00 +17°C° 0,1 mm 4 m/S 738 mmHg 96%
    07:00 +17°C° 0,1 mm 4 m/S 738 mmHg 95%
    08:00 +17°C° 0 mm 4 m/S 738 mmHg 95%
    09:00 +18°C° 0,2 mm 4 m/S 738 mmHg 93%
    10:00 +17°C° 0,2 mm 5 m/S 738 mmHg 91%
    11:00 +19°C° 0,2 mm 5 m/S 738 mmHg 89%
    12:00 +20°C° 0,6 mm 5 m/S 738 mmHg 86%
    13:00 +20°C° 0,6 mm 5 m/S 738 mmHg 84%
    14:00 +21°C° 0 mm 5 m/S 738 mmHg 83%
    15:00 +21°C° 0,9 mm 5 m/S 737 mmHg 84%
    16:00 +21°C° 0,9 mm 5 m/S 737 mmHg 84%
    17:00 +21°C° 0,9 mm 5 m/S 737 mmHg 84%
    18:00 +20°C° 0,4 mm 5 m/S 737 mmHg 87%
    19:00 +19°C° 0,4 mm 4 m/S 737 mmHg 90%
    20:00 +19°C° 0,4 mm 3 m/S 737 mmHg 93%
    21:00 +18°C° 0,2 mm 3 m/S 737 mmHg 94%
    22:00 +17°C° 0,2 mm 3 m/S 737 mmHg 95%
    23:00 +17°C° 0,2 mm 3 m/S 737 mmHg 96%

    Morgen, 16 Juli, Montag

    Zeit Temperatur Niederschläge Wind Luftdruck Luftfeuchtigkeit
    00:00 +16°C° 0,5 mm 3 m/S 737 mmHg 97%
    01:00 +16°C° 0,5 mm 3 m/S 737 mmHg 97%
    02:00 +16°C° 0,5 mm 3 m/S 737 mmHg 97%
    03:00 +16°C° 0,8 mm 3 m/S 737 mmHg 98%
    04:00 +16°C° 0,8 mm 3 m/S 737 mmHg 98%
    05:00 +16°C° 0,8 mm 3 m/S 737 mmHg 98%
    06:00 +17°C° 0,7 mm 3 m/S 737 mmHg 97%
    07:00 +17°C° 0,7 mm 4 m/S 737 mmHg 96%
    08:00 +18°C° 0,7 mm 4 m/S 737 mmHg 95%
    09:00 +19°C° 0,3 mm 4 m/S 736 mmHg 92%
    10:00 +19°C° 0,3 mm 4 m/S 736 mmHg 89%
    11:00 +20°C° 0,3 mm 5 m/S 736 mmHg 87%
    12:00 +21°C° 0,4 mm 5 m/S 736 mmHg 84%
    13:00 +22°C° 0,4 mm 5 m/S 736 mmHg 82%
    14:00 +22°C° 0,4 mm 5 m/S 736 mmHg 79%
    15:00 +23°C° 0,8 mm 4 m/S 735 mmHg 79%
    16:00 +23°C° 0,8 mm 4 m/S 735 mmHg 79%
    17:00 +23°C° 0,8 mm 4 m/S 735 mmHg 78%
    18:00 +22°C° 0,8 mm 4 m/S 735 mmHg 82%
    19:00 +21°C° 0,8 mm 3 m/S 735 mmHg 87%
    20:00 +20°C° 0,8 mm 3 m/S 734 mmHg 91%
    21:00 +19°C° 0,6 mm 2 m/S 734 mmHg 92%
    22:00 +18°C° 0,6 mm 2 m/S 734 mmHg 94%
    23:00 +18°C° 0,6 mm 2 m/S 734 mmHg 96%

    übermorgen, 17 Juli, Dienstag

    Zeit Temperatur Niederschläge Wind Luftdruck Luftfeuchtigkeit
    00:00 +17°C° 0 mm 2 m/S 734 mmHg 96%
    01:00 +17°C° 0 mm 2 m/S 734 mmHg 97%
    02:00 +17°C° 0 mm 2 m/S 734 mmHg 97%
    03:00 +16°C° 0 mm 2 m/S 734 mmHg 97%
    04:00 +16°C° 0 mm 2 m/S 734 mmHg 98%
    05:00 +16°C° 0 mm 2 m/S 734 mmHg 98%
    06:00 +17°C° 0 mm 2 m/S 734 mmHg 96%
    07:00 +18°C° 0 mm 3 m/S 734 mmHg 94%
    08:00 +19°C° 0 mm 3 m/S 734 mmHg 92%
    09:00 +20°C° 0,1 mm 3 m/S 734 mmHg 89%
    10:00 +20°C° 0,1 mm 3 m/S 734 mmHg 86%
    11:00 +21°C° 0,1 mm 3 m/S 734 mmHg 83%
    12:00 +21°C° 0,2 mm 3 m/S 733 mmHg 82%
    13:00 +22°C° 0,2 mm 3 m/S 733 mmHg 81%
    14:00 +22°C° 0,2 mm 3 m/S 733 mmHg 80%
    15:00 +22°C° 0,3 mm 3 m/S 733 mmHg 81%
    16:00 +22°C° 0,3 mm 3 m/S 732 mmHg 83%
    17:00 +21°C° 0,3 mm 3 m/S 732 mmHg 85%
    18:00 +20°C° 0,4 mm 3 m/S 732 mmHg 88%
    19:00 +20°C° 0,4 mm 3 m/S 732 mmHg 91%
    20:00 +19°C° 0,4 mm 3 m/S 732 mmHg 95%
    21:00 +19°C° 0,7 mm 3 m/S 732 mmHg 95%
    22:00 +19°C° 0,7 mm 4 m/S 731 mmHg 96%
    23:00 +18°C° 0,7 mm 4 m/S 731 mmHg 96%

    18 Juli, Mittwoch

    Zeit Temperatur Niederschläge Wind Luftdruck Luftfeuchtigkeit
    00:00 +18°C° 0,4 mm 4 m/S 731 mmHg 97%
    01:00 +18°C° 0,4 mm 4 m/S 731 mmHg 97%
    02:00 +18°C° 0,4 mm 4 m/S 731 mmHg 97%
    03:00 +19°C° 0,2 mm 3 m/S 731 mmHg 97%
    04:00 +19°C° 0,2 mm 3 m/S 731 mmHg 98%
    05:00 +19°C° 0,2 mm 3 m/S 730 mmHg 98%
    06:00 +19°C° 0,1 mm 3 m/S 731 mmHg 97%
    07:00 +20°C° 0,1 mm 3 m/S 731 mmHg 95%
    08:00 +20°C° 0,1 mm 3 m/S 731 mmHg 94%
    09:00 +21°C° 0 mm 3 m/S 731 mmHg 92%
    10:00 +22°C° 0 mm 3 m/S 731 mmHg 89%
    11:00 +22°C° 0 mm 3 m/S 732 mmHg 87%
    12:00 +24°C° 0,2 mm 3 m/S 732 mmHg 85%
    13:00 +25°C° 0,2 mm 3 m/S 732 mmHg 84%
    14:00 +25°C° 0,2 mm 3 m/S 732 mmHg 82%
    15:00 +26°C° 0,5 mm 3 m/S 732 mmHg 82%
    16:00 +26°C° 0,5 mm 3 m/S 732 mmHg 81%
    17:00 +26°C° 0,5 mm 3 m/S 733 mmHg 81%
    18:00 +25°C° 0,3 mm 3 m/S 733 mmHg 84%
    19:00 +24°C° 0,3 mm 2 m/S 733 mmHg 88%
    20:00 +23°C° 0,3 mm 2 m/S 733 mmHg 91%
    21:00 +23°C° 0,2 mm 2 m/S 733 mmHg 93%
    22:00 +21°C° 0,2 mm 2 m/S 733 mmHg 94%
    23:00 +20°C° 0,2 mm 2 m/S 734 mmHg 95%

    19 Juli, Donnerstag

    Zeit Temperatur Niederschläge Wind Luftdruck Luftfeuchtigkeit
    00:00 +20°C° 0,1 mm 2 m/S 734 mmHg 96%
    01:00 +20°C° 0,1 mm 2 m/S 734 mmHg 96%
    02:00 +20°C° 0,1 mm 2 m/S 734 mmHg 97%
    03:00 +20°C° 0 mm 2 m/S 734 mmHg 97%
    04:00 +19°C° 0 mm 2 m/S 734 mmHg 97%
    05:00 +19°C° 0 mm 2 m/S 735 mmHg 97%
    06:00 +20°C° 0,2 mm 3 m/S 735 mmHg 96%
    07:00 +21°C° 0,2 mm 3 m/S 735 mmHg 94%
    08:00 +22°C° 0,2 mm 4 m/S 736 mmHg 92%
    09:00 +23°C° 0,5 mm 4 m/S 736 mmHg 90%
    10:00 +25°C° 0,5 mm 4 m/S 736 mmHg 88%
    11:00 +25°C° 0,5 mm 4 m/S 736 mmHg 85%
    12:00 +26°C° 0,8 mm 5 m/S 736 mmHg 84%
    13:00 +26°C° 0,8 mm 5 m/S 736 mmHg 82%
    14:00 +26°C° 0,8 mm 6 m/S 736 mmHg 81%
    15:00 +26°C° 0,4 mm 6 m/S 736 mmHg 80%
    16:00 +27°C° 0,4 mm 6 m/S 736 mmHg 78%
    17:00 +27°C° 0,4 mm 6 m/S 737 mmHg 77%
    18:00 +26°C° 0,2 mm 5 m/S 737 mmHg 80%
    19:00 +25°C° 0,2 mm 5 m/S 737 mmHg 83%
    20:00 +23°C° 0,2 mm 4 m/S 737 mmHg 87%
    21:00 +22°C° 0,1 mm 4 m/S 737 mmHg 88%
    22:00 +21°C° 0,1 mm 4 m/S 737 mmHg 90%
    23:00 +20°C° 0,1 mm 4 m/S 737 mmHg 92%

    20 Juli, Freitag

    Zeit Temperatur Niederschläge Wind Luftdruck Luftfeuchtigkeit
    00:00 +20°C° 0 mm 4 m/S 737 mmHg 93%
    01:00 +20°C° 0 mm 4 m/S 737 mmHg 95%
    02:00 +19°C° 0 mm 4 m/S 737 mmHg 96%
    03:00 +19°C° 0 mm 4 m/S 737 mmHg 97%
    04:00 +19°C° 0 mm 4 m/S 737 mmHg 97%
    05:00 +19°C° 0 mm 4 m/S 737 mmHg 97%
    06:00 +19°C° 0 mm 4 m/S 738 mmHg 96%
    07:00 +20°C° 0 mm 4 m/S 738 mmHg 94%
    08:00 +21°C° 0 mm 4 m/S 738 mmHg 92%
    09:00 +21°C° 0,1 mm 4 m/S 738 mmHg 89%
    10:00 +22°C° 0,1 mm 4 m/S 738 mmHg 86%
    11:00 +23°C° 0,1 mm 4 m/S 738 mmHg 83%
    12:00 +25°C° 0,3 mm 4 m/S 738 mmHg 79%
    13:00 +26°C° 0,3 mm 3 m/S 738 mmHg 74%
    14:00 +27°C° 0,3 mm 3 m/S 738 mmHg 70%
    15:00 +27°C° 0,3 mm 3 m/S 738 mmHg 71%
    16:00 +27°C° 0,3 mm 3 m/S 738 mmHg 71%
    17:00 +27°C° 0,3 mm 3 m/S 738 mmHg 72%
    18:00 +26°C° 0,2 mm 3 m/S 738 mmHg 77%
    19:00 +25°C° 0,2 mm 2 m/S 738 mmHg 81%
    20:00 +24°C° 0,2 mm 2 m/S 738 mmHg 85%
    21:00 +23°C° 0,1 mm 2 m/S 738 mmHg 87%
    22:00 +21°C° 0,1 mm 2 m/S 738 mmHg 89%
    23:00 +20°C° 0,1 mm 2 m/S 739 mmHg 92%
    Mehr zeigen